Location: Aldenham
(51.6667°N, 0.3500°W)
Time: 16:32:28
(UTC+00:00)

USA 215 - Pass Details

Date: 18 November 2025
Orbit: 1101 x 1106 km, 123.0° (Epoch: 12 December)

Event Time Altitude Azimuth Distance (km) Brightness Sun altitude
Rises 17:47:05 0° 140° (SE) 3,912 5.9 -15.2°
Reaches altitude 10° 17:49:39 10° 146° (SE) 2,958 5.3 -15.6°
Maximum altitude 17:55:59 51° 221° (SW) 1,367 4.1 -16.5°
Drops below altitude 10° 18:02:21 10° 296° (WNW) 2,973 6.3 -17.5°
Sets 18:04:56 0° 302° (WNW) 3,934 7.0 -17.9°
